20050426,000021,982654,32.670790,-121.015018,14.965,33.081,0.296,0.454
20050426,000050,982683,32.671485,-121.013523,14.966,33.084,0.290,0.412
20050426,000120,982713,32.672181,-121.012043,14.973,33.082,0.277,0.421
20050426,000150,982743,32.672895,-121.010560,14.990,33.071,0.271,0.393
20050426,000220,982774,32.673600,-121.009065,15.031,33.043,0.253,0.373
20050426,000250,982803,32.674301,-121.007572,15.074,33.015,0.229,0.393
20050426,000320,982833,32.675006,-121.006080,15.129,32.980,0.216,0.319
20050426,000350,982863,32.675703,-121.004602,15.140,32.983,0.204,0.301
20050426,000421,982894,32.676416,-121.003120,15.193,32.959,0.204,0.323
20050426,000450,982923,32.677098,-121.001645,15.230,32.955,0.198,0.275
20050426,000520,982953,32.677803,-121.000173,15.264,32.950,0.198,0.305
20050426,000550,982983,32.678491,-120.998700,15.288,32.960,0.192,0.310
20050426,000620,983013,32.679178,-120.997248,15.313,32.963,0.192,0.273
20050426,000651,983044,32.679846,-120.995810,15.347,32.960,0.186,0.268
20050426,000720,983073,32.680526,-120.994368,15.368,32.968,0.186,0.286
20050426,000750,983103,32.681196,-120.992948,15.381,32.980,0.186,0.295
20050426,000820,983133,32.681876,-120.991506,15.399,32.987,0.186,0.278
20050426,000850,983163,32.682560,-120.990065,15.407,32.999,0.180,0.267
20050426,000920,983193,32.683246,-120.988638,15.414,33.013,0.180,0.269
20050426,000950,983223,32.683933,-120.987221,15.424,33.021,0.180,0.249
20050426,001020,983253,32.684598,-120.985810,15.427,33.031,0.180,0.273
20050426,001050,983283,32.685081,-120.984916,15.435,33.037,0.174,0.261
20050426,001120,983313,32.685390,-120.984401,15.436,33.044,0.174,0.284
20050426,001150,983343,32.685613,-120.984033,15.444,33.049,0.168,0.269
20050426,001220,983373,32.685751,-120.983726,15.453,33.045,0.168,0.262
20050426,001250,983403,32.685878,-120.983485,15.457,33.048,0.168,0.252
20050426,001320,983433,32.685968,-120.983241,15.471,33.043,0.168,0.261
20050426,001350,983463,32.686046,-120.983048,15.490,33.035,0.162,0.231
20050426,001420,983493,32.686121,-120.982855,15.511,33.022,0.162,0.255
20050426,001450,983523,32.686166,-120.982648,15.524,33.019,0.162,0.256
20050426,001521,983554,32.686231,-120.982463,15.543,33.011,0.162,0.263
20050426,001550,983583,32.686283,-120.982298,15.550,33.015,0.162,0.273
20050426,001620,983613,32.686358,-120.982136,15.556,33.019,0.162,0.262
20050426,001651,983644,32.686440,-120.981926,15.565,33.026,0.162,0.267
20050426,001720,983673,32.686551,-120.981665,15.571,33.027,0.156,0.205
20050426,001751,983704,32.686651,-120.981383,15.576,33.031,0.156,0.211
20050426,001820,983733,32.686773,-120.981093,15.578,33.034,0.156,0.202
20050426,001850,983763,32.686895,-120.980786,15.580,33.037,0.156,0.218
20050426,001920,983793,32.687020,-120.980476,15.583,33.038,0.156,0.218
20050426,001951,983824,32.687158,-120.980188,15.586,33.040,0.156,0.225
20050426,002020,983853,32.687280,-120.979893,15.588,33.041,0.156,0.214
20050426,002050,983883,32.687398,-120.979578,15.591,33.041,0.156,0.197
20050426,002120,983913,32.687526,-120.979266,15.593,33.042,0.156,0.198
20050426,002150,983943,32.687791,-120.978630,15.598,33.038,0.150,0.193
20050426,002221,983974,32.688258,-120.977511,15.606,33.034,0.156,0.226
20050426,002250,984003,32.688848,-120.976146,15.609,33.032,0.150,0.195
20050426,002320,984033,32.689506,-120.974663,15.614,33.031,0.150,0.199
20050426,002350,984063,32.690196,-120.973193,15.615,33.031,0.156,0.200
20050426,002420,984093,32.690905,-120.971705,15.618,33.034,0.156,0.201
20050426,002450,984124,32.691615,-120.970218,15.616,33.040,0.150,0.200
20050426,002520,984153,32.692331,-120.968741,15.615,33.045,0.150,0.192
20050426,002550,984183,32.693048,-120.967270,15.619,33.041,0.144,0.185
20050426,002620,984213,32.693785,-120.965815,15.623,33.036,0.144,0.189
20050426,002651,984244,32.694513,-120.964346,15.623,33.035,0.138,0.180
20050426,002720,984273,32.695248,-120.962896,15.627,33.033,0.138,0.182
20050426,002750,984303,32.695986,-120.961438,15.628,33.034,0.138,0.177
20050426,002820,984333,32.696703,-120.959968,15.632,33.033,0.138,0.177
20050426,002850,984363,32.697433,-120.958515,15.635,33.035,0.132,0.170
20050426,002920,984393,32.698155,-120.957071,15.640,33.038,0.132,0.170
20050426,002950,984423,32.698846,-120.955610,15.642,33.039,0.132,0.170
20050426,003020,984453,32.699578,-120.954158,15.646,33.042,0.132,0.170
20050426,003050,984483,32.700318,-120.952688,15.649,33.044,0.132,0.170
20050426,003120,984513,32.701045,-120.951233,15.652,33.046,0.132,0.170
20050426,003151,984544,32.701796,-120.949731,15.655,33.049,0.132,0.170
20050426,003220,984573,32.702483,-120.948316,15.653,33.054,0.132,0.170
20050426,003250,984603,32.703208,-120.946871,15.655,33.057,0.138,0.177
20050426,003320,984633,32.703956,-120.945415,15.657,33.060,0.132,0.170
20050426,003350,984663,32.704693,-120.943971,15.656,33.064,0.132,0.170
20050426,003420,984693,32.705398,-120.942536,15.657,33.066,0.138,0.176
20050426,003450,984723,32.706116,-120.941086,15.648,33.075,0.132,0.171
20050426,003520,984753,32.706831,-120.939621,15.641,33.085,0.138,0.176
20050426,003550,984783,32.707553,-120.938145,15.634,33.090,0.132,0.170
20050426,003620,984813,32.708278,-120.936678,15.623,33.100,0.132,0.170
20050426,003650,984843,32.709005,-120.935196,15.616,33.104,0.138,0.176
20050426,003720,984873,32.709745,-120.933731,15.615,33.100,0.132,0.170
20050426,003751,984904,32.710483,-120.932218,15.607,33.106,0.138,0.177
20050426,003821,984934,32.711181,-120.930793,15.608,33.102,0.132,0.170
20050426,003850,984963,32.711898,-120.929328,15.606,33.101,0.138,0.176
20050426,003920,984993,32.712643,-120.927875,15.601,33.101,0.132,0.170
20050426,003950,985023,32.713341,-120.926416,15.603,33.098,0.138,0.176
20050426,004020,985053,32.714083,-120.924973,15.601,33.095,0.138,0.176
20050426,004051,985084,32.714815,-120.923506,15.596,33.097,0.138,0.176
20050426,004120,985113,32.715525,-120.922028,15.596,33.094,0.138,0.176
20050426,004150,985143,32.716265,-120.920570,15.592,33.095,0.138,0.176
20050426,004220,985173,32.716985,-120.919100,15.593,33.092,0.138,0.176
20050426,004250,985203,32.717718,-120.917633,15.586,33.096,0.138,0.176
20050426,004320,985233,32.718435,-120.916173,15.584,33.096,0.132,0.170
20050426,004350,985263,32.719176,-120.914715,15.582,33.095,0.138,0.176
20050426,004420,985293,32.719906,-120.913235,15.580,33.096,0.138,0.176
20050426,004450,985323,32.720643,-120.911765,15.581,33.094,0.138,0.176
20050426,004520,985353,32.721370,-120.910293,15.574,33.097,0.144,0.183
20050426,004550,985383,32.722095,-120.908826,15.576,33.093,0.138,0.176
20050426,004620,985413,32.722821,-120.907365,15.573,33.095,0.138,0.176
20050426,004650,985443,32.723538,-120.905893,15.572,33.092,0.138,0.176
20050426,004720,985474,32.724251,-120.904416,15.568,33.093,0.138,0.176
20050426,004750,985503,32.724976,-120.902963,15.566,33.094,0.144,0.183
20050426,004820,985533,32.725695,-120.901485,15.565,33.091,0.138,0.176
20050426,004850,985563,32.726431,-120.900005,15.567,33.089,0.144,0.183
20050426,004920,985593,32.727148,-120.898535,15.565,33.089,0.144,0.183
20050426,004950,985623,32.727871,-120.897063,15.565,33.088,0.132,0.169
20050426,005020,985653,32.728596,-120.895600,15.567,33.085,0.138,0.176
20050426,005050,985683,32.729321,-120.894116,15.565,33.085,0.138,0.176
20050426,005120,985713,32.730065,-120.892635,15.563,33.086,0.144,0.183
20050426,005150,985743,32.730800,-120.891148,15.560,33.087,0.138,0.176
20050426,005220,985773,32.731533,-120.889638,15.557,33.089,0.144,0.183
20050426,005250,985803,32.732261,-120.888146,15.554,33.090,0.144,0.183
20050426,005321,985834,32.732998,-120.886596,15.552,33.090,0.150,0.189
20050426,005350,985863,32.733705,-120.885176,15.547,33.093,0.144,0.182
20050426,005421,985894,32.734443,-120.883638,15.540,33.097,0.144,0.182
20050426,005451,985924,32.735135,-120.882181,15.547,33.092,0.144,0.182
20050426,005521,985954,32.735881,-120.880610,15.536,33.095,0.138,0.176
20050426,005550,985983,32.736590,-120.879160,15.536,33.095,0.144,0.182
20050426,005620,986013,32.737311,-120.877655,15.536,33.093,0.138,0.176
20050426,005650,986043,32.738030,-120.876138,15.541,33.085,0.132,0.169
20050426,005721,986074,32.738766,-120.874581,15.544,33.081,0.138,0.176
20050426,005750,986103,32.739448,-120.873145,15.543,33.081,0.138,0.176
20050426,005821,986134,32.740188,-120.871580,15.545,33.078,0.144,0.182
20050426,005850,986163,32.740868,-120.870105,15.547,33.077,0.138,0.176
20050426,005920,986193,32.741586,-120.868603,15.550,33.074,0.144,0.183
20050426,005950,986223,32.742306,-120.867068,15.547,33.077,0.144,0.189
20050426,010021,986254,32.743056,-120.865533,15.548,33.077,0.138,0.184
20050426,010051,986284,32.743796,-120.863956,15.543,33.084,0.138,0.178
20050426,010121,986314,32.744518,-120.862410,15.542,33.085,0.144,0.182
20050426,010150,986343,32.745208,-120.860955,15.542,33.085,0.144,0.189
20050426,010221,986374,32.745948,-120.859371,15.535,33.090,0.150,0.196
20050426,010251,986404,32.746648,-120.857835,15.534,33.091,0.150,0.199
20050426,010320,986433,32.747340,-120.856371,15.526,33.096,0.150,0.196
20050426,010351,986464,32.748095,-120.854765,15.521,33.099,0.150,0.191
20050426,010421,986494,32.748830,-120.853225,15.509,33.107,0.156,0.196
20050426,010451,986524,32.749551,-120.851660,15.503,33.109,0.150,0.189
20050426,010521,986554,32.750278,-120.850111,15.490,33.116,0.150,0.196
20050426,010551,986584,32.750993,-120.848573,15.480,33.120,0.150,0.200
20050426,010621,986614,32.751725,-120.847008,15.469,33.124,0.150,0.212
20050426,010651,986644,32.752448,-120.845440,15.460,33.127,0.156,0.207
20050426,010721,986674,32.753175,-120.843883,15.448,33.131,0.156,0.221
20050426,010751,986704,32.753911,-120.842311,15.446,33.126,0.162,0.228
20050426,010822,986735,32.754610,-120.840771,15.443,33.122,0.168,0.227
20050426,010851,986764,32.755301,-120.839215,15.425,33.131,0.174,0.243
20050426,010921,986794,32.756018,-120.837665,15.416,33.130,0.168,0.232
20050426,010951,986824,32.756721,-120.836080,15.401,33.136,0.174,0.239
20050426,011021,986854,32.757433,-120.834515,15.385,33.140,0.180,0.261
20050426,011051,986884,32.758150,-120.832930,15.380,33.138,0.192,0.287
20050426,011121,986914,32.758871,-120.831366,15.360,33.147,0.192,0.274
20050426,011151,986944,32.759608,-120.829873,15.350,33.144,0.192,0.287
20050426,011221,986974,32.760305,-120.828358,15.338,33.146,0.210,0.300
20050426,011251,987004,32.761028,-120.826865,15.315,33.156,0.235,0.350
20050426,011321,987034,32.761775,-120.825353,15.310,33.149,0.284,0.428
20050426,011351,987064,32.762503,-120.823855,15.264,33.176,0.345,0.524
20050426,011421,987094,32.763223,-120.822351,15.230,33.193,0.401,0.588
20050426,011451,987124,32.763913,-120.820846,15.214,33.192,0.414,0.641
20050426,011521,987154,32.764625,-120.819341,15.175,33.210,0.420,0.642
20050426,011551,987184,32.765326,-120.817826,15.171,33.195,0.420,0.623
20050426,011622,987215,32.766035,-120.816323,15.156,33.190,0.420,0.616
20050426,011651,987244,32.766745,-120.814803,15.141,33.181,0.445,0.670
20050426,011721,987274,32.767450,-120.813303,15.137,33.167,0.458,0.718
20050426,011751,987304,32.768161,-120.811786,15.121,33.165,0.458,0.657
20050426,011821,987334,32.768875,-120.810315,15.121,33.152,0.451,0.705
20050426,011851,987364,32.769578,-120.808826,15.112,33.145,0.458,0.730
20050426,011921,987394,32.770291,-120.807318,15.110,33.136,0.470,0.687
20050426,011951,987424,32.771003,-120.805823,15.099,33.135,0.464,0.710
20050426,012021,987454,32.771725,-120.804325,15.099,33.128,0.464,0.738
20050426,012051,987484,32.772456,-120.802830,15.096,33.124,0.477,0.719
20050426,012121,987514,32.773176,-120.801331,15.097,33.117,0.483,0.755
20050426,012151,987544,32.773898,-120.799850,15.093,33.113,0.477,0.759
20050426,012222,987575,32.774596,-120.798358,15.098,33.105,0.470,0.735
20050426,012251,987604,32.775311,-120.796870,15.100,33.100,0.477,0.757
20050426,012321,987634,32.776041,-120.795373,15.102,33.094,0.483,0.767
20050426,012351,987664,32.776755,-120.793876,15.097,33.097,0.502,0.798
20050426,012421,987694,32.777480,-120.792390,15.094,33.098,0.514,0.821
20050426,012451,987724,32.778206,-120.790915,15.095,33.097,0.514,0.795
20050426,012521,987754,32.778933,-120.789426,15.086,33.102,0.514,0.779
20050426,012552,987785,32.779656,-120.787916,15.084,33.104,0.540,0.865
20050426,012621,987814,32.780371,-120.786396,15.083,33.103,0.540,0.863
20050426,012651,987844,32.781095,-120.784891,15.081,33.102,0.540,0.863
20050426,012722,987875,32.781826,-120.783345,15.082,33.099,0.552,0.858
20050426,012751,987904,32.782526,-120.781896,15.082,33.098,0.552,0.883
20050426,012821,987934,32.783263,-120.780396,15.081,33.098,0.559,0.893
20050426,012852,987965,32.784000,-120.778896,15.080,33.098,0.552,0.861
20050426,012921,987994,32.784746,-120.777380,15.082,33.097,0.565,0.901
20050426,012951,988024,32.785481,-120.775860,15.082,33.096,0.559,0.891
20050426,013022,988055,32.786218,-120.774350,15.085,33.095,0.559,0.889
20050426,013051,988085,32.786965,-120.772828,15.091,33.088,0.571,0.909
20050426,013121,988114,32.787691,-120.771311,15.090,33.091,0.565,0.897
20050426,013151,988144,32.788420,-120.769793,15.090,33.092,0.565,0.893
20050426,013221,988174,32.789163,-120.768296,15.097,33.088,0.571,0.898
20050426,013251,988204,32.789896,-120.766775,15.102,33.084,0.578,0.894
20050426,013321,988234,32.790628,-120.765248,15.108,33.082,0.565,0.888
20050426,013352,988265,32.791366,-120.763723,15.111,33.080,0.559,0.854
20050426,013421,988294,32.792103,-120.762193,15.118,33.079,0.565,0.879
20050426,013451,988324,32.792821,-120.760665,15.124,33.077,0.565,0.885
20050426,013522,988355,32.793561,-120.759136,15.130,33.077,0.565,0.883
20050426,013551,988384,32.794301,-120.757616,15.138,33.074,0.565,0.858
20050426,013622,988415,32.795050,-120.756078,15.141,33.075,0.546,0.827
20050426,013651,988444,32.795805,-120.754550,15.146,33.078,0.565,0.877
20050426,013721,988474,32.796565,-120.753010,15.155,33.074,0.552,0.836
20050426,013751,988504,32.797333,-120.751468,15.159,33.076,0.546,0.838
20050426,013821,988534,32.798135,-120.749918,15.168,33.073,0.527,0.803
20050426,013851,988564,32.798903,-120.748343,15.174,33.072,0.514,0.781
20050426,013921,988594,32.799708,-120.746788,15.177,33.075,0.502,0.736
20050426,013951,988624,32.800513,-120.745240,15.180,33.078,0.477,0.696
20050426,014021,988654,32.801303,-120.743660,15.184,33.080,0.426,0.621
20050426,014051,988684,32.802086,-120.742093,15.189,33.079,0.364,0.498
20050426,014121,988714,32.802865,-120.740535,15.201,33.074,0.345,0.486
20050426,014151,988744,32.803640,-120.738963,15.209,33.071,0.333,0.467
20050426,014222,988775,32.804421,-120.737385,15.222,33.064,0.327,0.451
20050426,014251,988804,32.805216,-120.735806,15.230,33.064,0.327,0.455
20050426,014321,988834,32.805993,-120.734225,15.236,33.064,0.327,0.463
20050426,014351,988864,32.806785,-120.732648,15.240,33.067,0.327,0.440
20050426,014421,988894,32.807573,-120.731076,15.245,33.067,0.320,0.415
20050426,014451,988924,32.808350,-120.729501,15.247,33.069,0.320,0.437
20050426,014521,988954,32.809126,-120.727923,15.252,33.069,0.320,0.432
20050426,014551,988984,32.809913,-120.726350,15.255,33.070,0.314,0.422
20050426,014621,989014,32.810710,-120.724781,15.263,33.067,0.314,0.423
20050426,014651,989044,32.811488,-120.723201,15.271,33.064,0.308,0.417
20050426,014721,989074,32.812258,-120.721621,15.285,33.054,0.302,0.402
20050426,014751,989104,32.813035,-120.720063,15.296,33.049,0.308,0.420
20050426,014821,989134,32.813796,-120.718493,15.302,33.047,0.296,0.401
20050426,014851,989164,32.814576,-120.716936,15.316,33.041,0.290,0.396
20050426,014921,989194,32.815348,-120.715390,15.331,33.036,0.296,0.399
20050426,014952,989225,32.816118,-120.713815,15.352,33.025,0.284,0.366
20050426,015021,989254,32.816893,-120.712258,15.363,33.023,0.284,0.383
20050426,015051,989284,32.817651,-120.710703,15.379,33.018,0.277,0.380
20050426,015121,989314,32.818411,-120.709135,15.389,33.020,0.247,0.323
20050426,015151,989344,32.819196,-120.707583,15.405,33.016,0.216,0.287
20050426,015222,989375,32.819970,-120.706018,15.414,33.020,0.198,0.255
20050426,015251,989404,32.820753,-120.704453,15.426,33.020,0.192,0.247
20050426,015321,989435,32.821530,-120.702880,15.432,33.025,0.192,0.259
20050426,015351,989464,32.822295,-120.701315,15.439,33.031,0.186,0.244
20050426,015421,989494,32.823081,-120.699743,15.445,33.035,0.186,0.248
20050426,015451,989524,32.823855,-120.698185,15.449,33.039,0.180,0.235
20050426,015521,989554,32.824625,-120.696646,15.452,33.044,0.180,0.237
20050426,015551,989584,32.825388,-120.695090,15.453,33.051,0.180,0.234
20050426,015621,989614,32.826170,-120.693538,15.455,33.053,0.180,0.231
20050426,015651,989644,32.826945,-120.691980,15.453,33.060,0.180,0.232
20050426,015721,989674,32.827728,-120.690428,15.451,33.064,0.180,0.230
20050426,015751,989704,32.828498,-120.688853,15.450,33.068,0.180,0.237
20050426,015822,989735,32.829278,-120.687288,15.440,33.079,0.174,0.227
20050426,015851,989764,32.830055,-120.685715,15.435,33.083,0.180,0.228
20050426,015921,989794,32.830811,-120.684141,15.426,33.089,0.180,0.226
20050426,015951,989824,32.831573,-120.682576,15.421,33.094,0.180,0.230
20050426,020022,989855,32.832355,-120.680963,15.421,33.090,0.180,0.226
20050426,020051,989884,32.833100,-120.679438,15.420,33.088,0.186,0.235
20050426,020121,989914,32.833853,-120.677861,15.409,33.096,0.186,0.233
20050426,020151,989944,32.834626,-120.676283,15.413,33.089,0.198,0.249
20050426,020221,989974,32.835395,-120.674710,15.402,33.094,0.198,0.248
20050426,020251,990004,32.836170,-120.673138,15.396,33.098,0.204,0.256
20050426,020321,990034,32.836951,-120.671558,15.386,33.099,0.216,0.264
20050426,020351,990064,32.837738,-120.669985,15.380,33.102,0.259,0.315
20050426,020421,990094,32.838503,-120.668376,15.374,33.103,0.247,0.300
20050426,020451,990124,32.839288,-120.666783,15.371,33.102,0.229,0.282
20050426,020521,990154,32.840056,-120.665203,15.371,33.097,0.204,0.250
20050426,020552,990185,32.840841,-120.663638,15.365,33.097,0.198,0.240
20050426,020621,990214,32.841615,-120.662103,15.348,33.109,0.198,0.244
20050426,020651,990244,32.842368,-120.660548,15.336,33.112,0.241,0.297
20050426,020721,990274,32.843131,-120.659005,15.329,33.116,0.290,0.349
20050426,020752,990305,32.843893,-120.657460,15.309,33.124,0.358,0.442
20050426,020821,990334,32.844656,-120.655910,15.291,33.134,0.420,0.525
20050426,020852,990365,32.845418,-120.654366,15.245,33.166,0.464,0.579
20050426,020921,990394,32.846178,-120.652841,15.195,33.197,0.458,0.589
20050426,020951,990424,32.846938,-120.651303,15.202,33.177,0.470,0.589
20050426,021021,990454,32.847700,-120.649771,15.142,33.211,0.470,0.585
20050426,021051,990484,32.848448,-120.648235,15.123,33.212,0.470,0.585
20050426,021121,990514,32.849216,-120.646695,15.111,33.203,0.458,0.571
20050426,021151,990544,32.849991,-120.645156,15.107,33.187,0.439,0.543
20050426,021221,990574,32.850738,-120.643593,15.101,33.173,0.439,0.542
20050426,021252,990605,32.851535,-120.642015,15.092,33.165,0.420,0.517
20050426,021322,990635,32.852285,-120.640523,15.087,33.154,0.414,0.504
20050426,021352,990665,32.853073,-120.638925,15.084,33.144,0.407,0.501
20050426,021421,990694,32.853786,-120.637426,15.087,33.131,0.407,0.500
20050426,021451,990724,32.854545,-120.635908,15.083,33.123,0.401,0.486
20050426,021522,990755,32.855308,-120.634365,15.077,33.119,0.401,0.487
20050426,021551,990785,32.856061,-120.632811,15.069,33.116,0.401,0.482
20050426,021622,990815,32.856823,-120.631285,15.069,33.109,0.389,0.471
20050426,021652,990845,32.857591,-120.629743,15.066,33.106,0.395,0.471
20050426,021721,990874,32.858336,-120.628210,15.055,33.109,0.407,0.494
20050426,021751,990904,32.859088,-120.626661,15.048,33.109,0.395,0.475
20050426,021822,990935,32.859855,-120.625113,15.045,33.107,0.401,0.482
20050426,021852,990965,32.860650,-120.623521,15.040,33.107,0.395,0.473
20050426,021921,990994,32.861371,-120.622011,15.032,33.108,0.401,0.481
20050426,021952,991025,32.862160,-120.620413,15.025,33.112,0.401,0.479
20050426,022021,991054,32.862903,-120.618910,15.022,33.108,0.395,0.471
20050426,022052,991085,32.863661,-120.617361,15.025,33.102,0.389,0.460
20050426,022122,991115,32.864461,-120.615766,15.017,33.105,0.389,0.461
20050426,022152,991145,32.865215,-120.614228,15.018,33.098,0.389,0.464
20050426,022222,991175,32.865993,-120.612698,15.018,33.095,0.407,0.486
20050426,022252,991205,32.866761,-120.611153,15.022,33.086,0.426,0.511
20050426,022321,991234,32.867505,-120.609638,15.025,33.083,0.464,0.559
20050426,022352,991265,32.868275,-120.608075,15.018,33.087,0.477,0.575
20050426,022422,991295,32.869048,-120.606508,15.015,33.087,0.489,0.595
20050426,022452,991325,32.869811,-120.604940,15.016,33.088,0.502,0.610
20050426,022522,991355,32.870613,-120.603328,15.012,33.087,0.514,0.624
20050426,022552,991385,32.871370,-120.601758,15.013,33.088,0.527,0.640
20050426,022622,991415,32.872148,-120.600193,15.014,33.081,0.521,0.634
20050426,022652,991445,32.872911,-120.598626,15.017,33.076,0.533,0.651
20050426,022721,991474,32.873640,-120.597110,15.021,33.072,0.546,0.666
20050426,022751,991504,32.874420,-120.595526,15.023,33.070,0.540,0.657
20050426,022822,991535,32.875220,-120.593913,15.027,33.067,0.559,0.682
20050426,022852,991565,32.875956,-120.592390,15.026,33.069,0.546,0.664
20050426,022922,991595,32.876766,-120.590773,15.022,33.074,0.559,0.679
20050426,022952,991625,32.877546,-120.589211,15.020,33.078,0.571,0.695
20050426,023022,991655,32.878321,-120.587630,15.012,33.088,0.578,0.703
20050426,023053,991686,32.879106,-120.586071,15.003,33.093,0.565,0.684
20050426,023122,991715,32.879885,-120.584521,14.998,33.100,0.565,0.683
20050426,023153,991746,32.880691,-120.582971,14.984,33.108,0.552,0.665
20050426,023222,991775,32.881475,-120.581436,14.978,33.113,0.514,0.612
20050426,023253,991806,32.882230,-120.579871,14.976,33.110,0.502,0.594
20050426,023322,991835,32.883010,-120.578308,14.975,33.109,0.483,0.569
20050426,023353,991866,32.883778,-120.576780,14.975,33.103,0.401,0.462
20050426,023423,991896,32.884533,-120.575250,14.987,33.088,0.333,0.378
20050426,023452,991925,32.885305,-120.573700,15.003,33.076,0.277,0.312
20050426,023522,991955,32.886076,-120.572155,15.030,33.049,0.241,0.271
20050426,023552,991985,32.886826,-120.570611,15.053,33.034,0.216,0.243
20050426,023622,992015,32.887575,-120.569080,15.068,33.024,0.210,0.236
20050426,023653,992046,32.888331,-120.567546,15.088,33.014,0.204,0.230
20050426,023723,992076,32.889075,-120.566001,15.095,33.020,0.204,0.230
20050426,023752,992105,32.889826,-120.564483,15.099,33.022,0.198,0.223
20050426,023822,992135,32.890583,-120.562961,15.108,33.031,0.198,0.223
20050426,023852,992165,32.891326,-120.561433,15.120,33.025,0.198,0.223
20050426,023922,992195,32.892076,-120.559911,15.129,33.026,0.192,0.217
20050426,023952,992225,32.892833,-120.558373,15.137,33.024,0.186,0.210
20050426,024022,992255,32.893568,-120.556820,15.152,33.020,0.192,0.216
20050426,024052,992285,32.894318,-120.555291,15.160,33.021,0.186,0.210
20050426,024122,992315,32.895043,-120.553743,15.174,33.016,0.192,0.216
20050426,024153,992346,32.895805,-120.552196,15.185,33.013,0.186,0.210
20050426,024222,992375,32.896571,-120.550640,15.189,33.017,0.192,0.216
20050426,024252,992405,32.897315,-120.549091,15.193,33.020,0.198,0.222
20050426,024323,992436,32.898060,-120.547530,15.202,33.023,0.198,0.222
20050426,024353,992466,32.898793,-120.545968,15.203,33.028,0.198,0.222
20050426,024422,992495,32.899540,-120.544408,15.200,33.038,0.192,0.216
20050426,024453,992526,32.900276,-120.542873,15.200,33.041,0.198,0.222
20050426,024522,992555,32.900995,-120.541341,15.198,33.049,0.198,0.222
20050426,024552,992585,32.901733,-120.539800,15.185,33.061,0.198,0.222
20050426,024623,992616,32.902473,-120.538265,15.185,33.061,0.198,0.222